Location: Roland
(31.1349°N, 85.4372°W)
Time: 04:40:44
(UTC+00:00)

Vanguard 2 - All Passes

Search period start: 14 April 2021 00:00
Search period end: 24 April 2021 00:00
Orbit: 552 x 2938 km, 32.9° (Epoch: 13 April)

Date Brightness Start Highest point End Pass type
(mag) Time Alt. Az. Time Alt. Az. Time Alt. Az.
14 Apr - 01:05:35 10° W 01:10:53 54° SSW 01:14:50 10° SE visible
14 Apr - 16:36:52 10° SSW 16:49:28 27° SSE 16:59:05 10° E daylight
14 Apr - 18:46:20 10° SW 19:00:39 57° SSE 19:09:27 10° E daylight
14 Apr - 20:59:22 10° W 21:10:53 87° N 21:17:31 10° E daylight
14 Apr - 23:12:24 10° W 23:20:17 82° N 23:25:11 10° E daylight
15 Apr - 01:23:39 10° W 01:28:27 36° SSW 01:32:12 10° SE visible
15 Apr - 14:51:03 10° SSE 14:55:43 12° SE 15:00:08 10° SE daylight
15 Apr - 16:53:08 10° SSW 17:07:25 35° SSE 17:17:46 10° E daylight
15 Apr - 19:03:59 10° WSW 19:18:33 69° SSE 19:27:17 10° E daylight
15 Apr - 21:17:35 10° W 21:28:48 81° N 21:35:16 10° E daylight
15 Apr - 23:30:29 10° WNW 23:38:07 86° S 23:42:54 10° ESE daylight
16 Apr - 01:41:57 10° W 01:45:56 23° SW 01:49:14 10° SSE visible
16 Apr - 15:03:41 10° S 15:13:42 18° SE 15:22:33 10° ESE daylight
16 Apr - 17:09:55 10° SW 17:25:20 45° SSE 17:36:05 10° E daylight
16 Apr - 19:21:53 10° WSW 19:36:29 80° SSE 19:45:05 10° ENE daylight
16 Apr - 21:35:51 10° W 21:46:44 79° N 21:53:02 10° E daylight
16 Apr - 23:48:31 10° WNW 23:55:51 70° SSW 00:00:32 10° ESE daylight
17 Apr - 02:00:50 10° WSW 02:03:20 14° SW 02:05:35 10° S visible
17 Apr - 15:18:45 10° S 15:31:36 25° SE 15:42:27 10° E daylight
17 Apr - 17:27:05 10° SW 17:43:15 55° SSE 17:54:09 10° E daylight
17 Apr - 19:40:00 10° WSW 19:54:24 89° SSE 20:02:51 10° ENE daylight
17 Apr - 21:54:04 10° W 22:04:40 81° N 22:10:48 10° E daylight
18 Apr - 00:06:36 10° W 00:13:30 51° SSW 00:18:02 10° SE daylight
18 Apr - 15:34:45 10° SSW 15:49:28 33° SE 16:01:27 10° E daylight
18 Apr - 17:44:35 10° SW 18:01:11 66° SSE 18:12:05 10° ENE daylight
18 Apr - 19:58:13 10° W 20:12:22 85° N 20:20:38 10° E daylight
18 Apr - 22:12:16 10° W 22:22:34 87° N 22:28:33 10° E daylight
19 Apr - 00:24:47 10° W 00:31:00 36° SSW 00:35:17 10° SE daylight
19 Apr - 13:47:17 10° SSE 13:55:41 15° SE 14:03:44 10° ESE daylight
19 Apr - 15:51:16 10° SSW 16:07:18 42° SSE 16:19:57 10° E daylight
19 Apr - 18:02:21 10° WSW 18:19:07 76° SSE 18:29:56 10° ENE daylight
19 Apr - 20:16:31 10° W 20:30:23 82° N 20:38:26 10° E daylight
19 Apr - 22:30:25 10° WNW 22:40:24 81° SSW 22:46:15 10° ESE daylight
20 Apr - 00:43:12 10° W 00:48:22 24° SW 00:52:11 10° SSE visible
20 Apr - 14:01:35 10° S 14:13:26 22° SE 14:24:36 10° E daylight
20 Apr - 16:08:15 10° SW 16:25:10 52° SSE 16:38:10 10° E daylight
20 Apr - 18:20:20 10° WSW 18:37:06 85° SSE 18:47:46 10° ENE daylight
20 Apr - 20:34:50 10° W 20:48:23 81° N 20:56:13 10° E daylight
20 Apr - 22:48:33 10° WNW 22:58:09 67° SSW 23:03:50 10° ESE daylight
21 Apr - 01:02:13 10° WSW 01:05:37 15° SW 01:08:26 10° S visible
21 Apr - 14:17:10 10° SSW 14:31:09 30° SE 14:44:05 10° E daylight
21 Apr - 16:25:32 10° SW 16:43:02 62° SSE 16:56:13 10° ENE daylight
21 Apr - 18:38:29 10° WSW 18:55:08 89° NNW 19:05:35 10° E daylight
21 Apr - 20:53:08 10° W 21:06:23 85° N 21:14:01 10° E daylight
21 Apr - 23:06:43 10° WNW 23:15:45 51° SSW 23:21:15 10° SE daylight
22 Apr - 12:33:44 10° SSE 12:37:41 11° SE 12:41:41 10° ESE daylight
22 Apr - 14:33:26 10° SSW 14:48:50 38° SE 15:02:53 10° E daylight
22 Apr - 16:43:08 10° WSW 17:00:58 72° SSE 17:14:09 10° ENE daylight
22 Apr - 18:56:46 10° W 19:13:12 84° N 19:23:25 10° E daylight
22 Apr - 21:11:22 10° W 21:24:19 88° SSW 21:31:46 10° ESE daylight
22 Apr - 23:25:00 10° W 23:33:11 37° SW 23:38:27 10° SSE daylight
23 Apr - 12:45:44 10° S 12:55:17 18° SE 13:05:07 10° E daylight
23 Apr - 14:50:10 10° SSW 15:06:34 47° SSE 15:21:20 10° E daylight
23 Apr - 17:00:57 10° WSW 17:18:58 81° SSE 17:32:03 10° ENE daylight
23 Apr - 19:15:06 10° W 19:31:18 83° N 19:41:15 10° E daylight
23 Apr - 21:29:35 10° WNW 21:42:11 78° SSW 21:49:26 10° ESE daylight
23 Apr - 23:43:31 10° W 23:50:28 26° SW 23:55:17 10° SSE daylight
